Powrót do katalogu

STARLINK-36984

AktywnyŁącznośćVLEO
NORAD 68168·PAYLOAD·🇺🇸 United States

Wystrzelony Mar 14, 2026 z Vandenberg Space Force Base

Loading…

Następne Przeloty (najbliższe 24 godziny)

TLE

ŚwieżeSource: CelesTrak SupGP

Epoka: Sep 15, 2026, 03:33 UTC

1 68168C 26050B   26258.14840278 -.00006060  00000+0 -17922-3 0  2584
2 68168  53.1575 102.5978 0001340  76.6469 104.5761 15.34360706    15

Śledź STARLINK-36984 w czasie rzeczywistym z AllMySat

Download on the App Store